CAPE
7 0 0 0 0 0 0 0 0 0 0 0 0 0 0 0 0 0 0 0 0 0
0 0 0 0 0 0 0 0 0 0 0 0 0 0 0 0 0 0 0 0 0 0
0 0 0 0 0 0 0 0 0 0 0 0 0 0 0 0 0 0 0 0 0 0
30 6 0 0 0 0 0 0 0 0 0 0 0 0 0 0 0 0 0 0 0 0
21 4 0 1 1 1 0 0 0 0 0 0 0 0 0 0 0 0 0 0 0 0
0 0 0 1 1 1 1 0 0 0 0 0 0 0 0 0 0 0 0 0 0 0
0 0 0 0 1 1 1 0 0 0 0 0 0 0 0 0 0 0 0 0 0 0
0 2 1 2 2 1 1 1 0 0 0 0 0 0 0 0 0 0 0 0 0 0
2 1 2 2 2 2 2 1 1 1 1 1 1 0 0 0 0 0 0 0 0 0
1 2 2 2 2 1 1 1 2 2 1 1 1 0 0 0 0 0 0 0 0 0
1 1 1 1 1 1 1 1 1 1 1 1 2 0 0 0 0 0 0 0 0 0
1 2 1 1 1 1 1 1 1 1 1 0 0 0 0 0 0 0 0 0 0 0
1 1 1 1 1 1 1 1 0 0 0 0 0 0 0 0 0 0 0 0 0 0
0 0 0 1 0 0 0 0 0 0 0 0 0 0 0 0 0 0 0 0 0 0
CIN
-301 -0 -0 -0 -0 -0 -0 -0 -0 -0 -0 -0 -0 -0 -0 -0 -0 -0 -0 -0 -0 -0
-0 -0 -0 -0 -0 -0 -0 -0 -0 -0 -0 -0 -0 -0 -0 -0 -0 -0 -0 -0 -0 -0
-0 -0 -0 -0 -0 -0 -0 -0 -0 -0 -0 -0 -0 -0 -0 -0 -0 -0 -0 -0 -0 -0
-127 -139 -17 -0 -0 -0 -0 -0 -0 -0 -0 -3 -0 -0 -0 -0 -0 -0 -0 -0 -0 -0
-97 -120 -0 -0 -0 -0 -0 -0 -0 -0 -0 -0 -0 -0 -0 -0 -0 -0 -0 -0 -0 -0
-0 -0 -0 -0 -0 -0 -0 -0 -0 -0 -0 -0 -0 -0 -0 -0 -0 -0 -0 -0 -0 -0
-0 -0 -0 -0 -0 -0 -0 -0 -0 -0 -0 -0 -0 -0 -0 -0 -0 -0 -0 -0 -0 -0
-0 -0 -0 -0 -0 -0 -0 -0 -0 -0 -0 -0 -0 -0 -0 -0 -0 -0 -0 -0 -0 -0
-0 -0 -0 -0 -0 -0 -0 -0 -0 -0 -0 -0 -0 -0 -0 -0 -0 -0 -0 -0 -0 -0
-0 -0 -0 -0 -0 -0 -0 -0 -0 -0 -0 -0 -0 -0 -0 -0 -0 -0 -0 -0 -0 -0
-0 -0 -0 -0 -0 -0 -0 -0 -0 -0 -0 -0 -0 -0 -0 -0 -0 -0 -0 -0 -0 -0
-0 -0 -0 -0 -0 -0 -0 -0 -0 -0 -0 -0 -0 -0 -0 -0 -0 -0 -0 -0 -0 -0
-0 -0 -0 -0 -0 -0 -0 -0 -0 -0 -0 -0 -0 -0 -0 -0 -0 -0 -0 -0 -0 -0
-0 -0 -0 -0 -0 -0 -0 -0 -0 -0 -0 -0 -0 -0 -0 -0 -0 -0 -0 -0 -0 -0
Wind_Speed
31 33 35 36 34 32 31 28 26 27 26 24 23 21 19 19 18 17 16 15 13 11
35 35 36 37 37 35 34 30 28 28 28 27 24 23 22 20 19 18 17 14 13 12
37 38 37 36 38 36 34 31 31 31 30 31 28 25 23 21 20 19 17 16 14 13
35 33 33 34 33 34 33 32 30 31 33 27 29 24 24 23 21 19 18 16 15 14
31 28 31 32 30 29 31 31 29 29 30 28 26 28 23 24 22 19 18 16 16 13
26 27 27 28 29 30 29 31 30 31 27 28 30 26 24 22 19 18 16 16 15 12
18 19 23 26 27 29 29 30 25 26 28 26 24 24 23 18 16 15 14 14 13 10
17 18 19 19 22 24 26 27 26 22 22 23 21 21 20 18 14 13 13 11 11 9
18 15 14 14 12 17 16 23 21 22 20 17 21 19 16 17 13 13 12 14 14 10
15 15 11 9 11 13 16 17 19 21 18 19 15 15 14 11 11 12 16 17 13 9
9 10 8 7 10 13 15 14 18 19 17 16 15 13 10 11 13 18 17 13 12 10
5 2 2 3 6 8 13 13 14 15 15 15 14 13 15 15 19 14 12 12 8 8
7 5 7 9 8 8 12 11 11 11 11 12 14 17 21 16 13 12 9 7 6 6
10 7 7 12 11 9 11 14 17 20 21 21 21 23 20 13 11 9 8 6 6 5
Wind_Direction
274 272 270 264 260 254 250 246 244 239 238 234 230 229 225 224 223 224 233 232 242 240
274 271 269 265 261 257 254 252 245 238 236 235 229 228 226 227 225 229 237 231 239 244
276 271 268 266 259 255 252 249 246 243 240 233 225 225 225 227 226 225 236 239 242 254
273 271 266 265 259 253 250 247 246 245 239 241 232 221 226 229 224 223 231 233 235 257
277 272 265 262 258 251 246 245 246 243 242 234 240 236 221 224 225 221 226 229 235 248
285 271 269 263 256 249 244 244 245 241 238 236 234 235 229 222 221 226 224 233 237 235
283 275 269 261 254 248 244 239 240 238 236 236 232 224 225 216 213 226 234 243 248 221
286 281 273 259 251 248 239 234 229 227 230 231 229 226 218 216 215 227 234 233 215 220
295 277 272 259 235 236 229 229 221 220 224 222 228 222 210 222 226 238 217 210 212 217
301 276 269 252 243 237 225 216 219 220 214 217 207 201 217 223 228 204 210 214 216 216
305 281 264 256 236 230 222 211 212 213 210 212 211 212 210 203 187 209 215 213 218 211
329 313 244 208 197 197 213 206 201 203 214 212 203 195 175 185 202 198 206 218 207 202
53 74 107 120 147 195 202 199 186 200 191 174 170 177 196 201 197 200 201 183 192 186
76 78 105 110 121 178 175 186 193 197 197 199 197 202 208 194 194 182 180 199 187 204